Location: Black Swamp Observatory
(41.3920°N, 84.1250°W)
Time: 04:13:13
(UTC-04:00)

Envisat - Visible Passes

Search period start: 24 September 2023 00:00
Search period end: 04 October 2023 00:00
Orbit: 763 x 764 km, 98.2° (Epoch: 23 September)

Date Brightness Start Highest point End Pass type
(mag) Time Alt. Az. Time Alt. Az. Time Alt. Az.
24 Sep 4.7 04:29:04 10° NE 04:33:25 28° E 04:35:12 23° SE visible
24 Sep 3.7 06:07:50 10° N 06:12:24 34° WNW 06:15:22 19° WSW visible
25 Sep 5.7 03:53:50 10° ENE 03:55:51 12° E 03:57:28 11° ESE visible
25 Sep 2.9 05:30:17 10° N 05:35:23 76° WNW 05:37:37 34° SSW visible
26 Sep 3.8 04:53:13 10° NNE 04:58:08 48° E 04:59:52 34° SSE visible
26 Sep 4.3 06:33:01 10° NNW 06:36:46 21° WNW 06:40:02 12° WSW visible
27 Sep 5.1 04:16:51 10° NE 04:20:43 21° E 04:22:07 19° ESE visible
27 Sep 3.3 05:55:04 10° N 05:59:53 44° WNW 06:02:17 26° SW visible
28 Sep 2.9 05:17:41 10° NNE 05:22:47 83° ESE 05:24:32 42° S visible
28 Sep 4.8 06:58:49 10° NNW 07:01:02 13° WNW 07:03:16 10° W visible
29 Sep 4.3 04:40:48 10° NNE 04:45:29 36° E 04:46:46 31° SE visible
29 Sep 4.0 06:20:05 10° N 06:24:17 27° WNW 06:26:56 18° WSW visible
30 Sep 5.4 04:04:50 10° NE 04:07:59 16° E 04:09:01 16° ESE visible
30 Sep 3.0 05:42:20 10° N 05:47:20 58° WNW 05:49:10 36° SW visible
01 Oct 3.3 05:05:07 10° NNE 05:10:10 63° ESE 05:11:24 47° SSE visible
01 Oct 4.5 06:45:29 10° NNW 06:48:36 17° WNW 06:51:34 11° W visible
02 Oct 4.7 04:28:27 10° NE 04:32:48 28° E 04:33:39 27° ESE visible
02 Oct 3.6 06:07:13 10° N 06:11:47 34° WNW 06:13:48 25° WSW visible
03 Oct 5.7 03:53:12 10° ENE 03:55:14 12° E 03:55:53 12° E visible
03 Oct 2.8 05:29:40 10° N 05:34:45 76° WNW 05:36:02 50° SSW visible
